Regional Weather Roundup
Issued by NWS

Home | Current Version | Previous Version | Graphics & Text | Print | Product List | Glossary On
Versions: 1 2 3 4 5 6 7 8 9 10 11 12 13 14 15 16 17 18 19 20 21 22 23 24 25 26 27
000
ASUS45 KTFX 100510
RWRMT
MONTANA REGIONAL WEATHER ROUNDUP
NATIONAL WEATHER SERVICE GREAT FALLS MT
1000 PM MST FRI DEC 09 2016

NOTE: "FAIR" INDICATES FEW OR NO CLOUDS BELOW 12000 FEET WITH NO
SIGNIFICANT WEATHER AND/OR OBSTRUCTIONS TO VISIBILITY.

MTZ001>007-043-100600-
WEST OF THE DIVIDE

CITY           SKY/WX    TMP DP  RH WIND       PRES   REMARKS
KALISPELL      LGT SNOW  10   7  87 N5        30.01F FOG
MISSOULA       LGT SNOW  16  13  88 CALM      29.99F VSB 1
BUTTE          LGT SNOW  20  17  88 CALM      29.88S FOG
MULLAN PASS    LGT SNOW  18  15  88 SW5       29.75F VSB 3/4
ANACONDA         N/A     12   7  79 N5        29.90S
DEER LODGE       N/A     12   9  85 CALM      29.94F
EUREKA           N/A      7   1  78 CALM      30.08F VSB 3/4
HAMILTON         N/A     16  10  79 CALM      29.96S
LIBBY            N/A     12   9  85 CALM      30.03F
PLAINS           N/A     15   7  71 CALM      30.02  VSB 1
RONAN            N/A     12   7  81 CALM      30.00F
$$

MTZ008-052>055-100600-
SOUTHWEST MONTANA

CITY           SKY/WX    TMP DP  RH WIND       PRES   REMARKS
BOZEMAN        LGT SNOW  10   6  84 CALM      29.97S FOG
DILLON         CLOUDY    13   8  81 S3        29.90F
W YELLOWSTONE  CLOUDY    25  21  86 S10       29.93F WCI  15
ENNIS          CLOUDY    30  23  74 SW10      29.92S WCI  21
$$

MTZ009-010-012-014-046-048-049-054-100600-
EAST SLOPES AND CENTRAL MONTANA

CITY           SKY/WX    TMP DP  RH WIND       PRES   REMARKS
CUT BANK       PTCLDY    -2  -5  87 SE8       29.99F WCI -17
GREAT FALLS    CLOUDY     0  -4  83 NE3       30.03F
MALMSTROM AFB  CLOUDY     1  -2  90 NE5       30.06F
HELENA         CLOUDY     7   0  73 E5        30.01F
AUGUSTA        MOCLDY    -7 -11  84 E1        29.94F
BOWMANS CRNR   FLURRIES  -7 -11  84 NE7       29.93F WCI -22
CHOTEAU          N/A     -6 -11  77 MISG      30.01F
CONRAD           N/A      0  -4  82 NE6       30.02F WCI -11
FAIRFIELD        N/A     -5  -9  81 SE2       30.00F
POWER          MOCLDY    -1  -4  85 E6        30.01F WCI -12
RAYNESFORD     MOCLDY     2  -4  78 SE8       29.99F WCI -12
ULM            MOCLDY    -2  -6  81 N9        30.03F WCI -17
$$

MTZ011-013-016-021-045-047-050-051-100600-
NORTH CENTRAL MONTANA

CITY           SKY/WX    TMP DP  RH WIND       PRES   REMARKS
HAVRE          CLOUDY     3  -2  79 E9        30.17F WCI -12
LEWISTOWN      CLOUDY     4  -1  80 E7        29.98F WCI  -8
N BAR RANCH    CLOUDY     5  -4  66 VRB6      29.98F WCI  -6
CHINOOK          N/A      1  -4  78 E12       30.21F WCI -15
DENTON         MOCLDY     5   1  86 MISG      30.01F
FORT BENTON      N/A      7   0  72 N7        30.13F WCI  -5
GEYSER         CLOUDY     1  -2  85 E2        29.99F
GRASS RANGE    MOCLDY     3   0  88 NW5       29.98F
JUDITH GAP     FLURRIES   2  -2  84 MISG      29.96F
ROY            MOCLDY     3   1  90 MISG      30.03F
STANFORD       CLOUDY     0  -3  89 N9        29.94F WCI -16
WINIFRED       FLURRIES   4   2  88 MISG      30.03F
$$

MTZ017>020-022>027-061-062-100600-
NORTHEAST MONTANA

CITY           SKY/WX    TMP DP  RH WIND       PRES   REMARKS
GLASGOW        CLOUDY    -4  -9  79 E15       30.29F WCI -25
JORDAN           N/A      0  -5  79 E9        30.22F WCI -15
SIDNEY         CLOUDY   -10 -15  78 N3        30.43F
WOLF POINT     CLOUDY    -6 -13  71 E8        30.40F WCI -21
PLENTYWOOD       N/A    -15 -18  84 E3        30.38F
POPLAR           N/A     -9 -15  77 E5        30.41F
SCOBEY           N/A    -11 -21  61 CALM      30.29
$$

MTZ028>42-056>058-100600-
SOUTHCENTRAL AND SOUTHEAST MONTANA

CITY           SKY/WX    TMP DP  RH WIND       PRES   REMARKS
BAKER          CLOUDY    -5 -10  79 E12       30.26F WCI -23
BILLINGS       LGT SNOW   5   2  87 NE6       30.08F FOG     WCI  -6
LIVINGSTON     LGT SNOW   7   2  80 E3        29.97F
MILES CITY     CLOUDY     3  -2  79 E7        30.24F WCI  -9
BIG TIMBER     CLOUDY     5   3  92 CALM      30.02F FOG
EKALAKA          N/A     -2 -10  68 E15       30.11  WCI -22
FORSYTH          N/A      3   0  85 E8        30.20F WCI -10
HARLOWTON      FLURRIES   3   0  87 E3        30.01F
LAUREL           N/A      7  -2  66 N5        30.04F
$$

REGIONAL REPORTS...DAKOTAS

CITY           SKY/WX    TMP DP  RH WIND       PRES   REMARKS
WILLISTON      CLOUDY   -16 -20  82 NE3       30.44F
MINOT          CLOUDY   -15 -20  78 SW8       30.48S WCI -32
DICKINSON      CLOUDY   -14 -19  79 S6        30.33F WCI -28
BEACH            N/A     -9 -13  84 SE7       30.33F WCI -24
CROSBY           N/A    -20 -26  76 SW5       30.46F
TIOGA            N/A    -20 -24  83 S7        30.42S WCI -37
WATFORD CITY     N/A    -20 -26  76 CALM      30.42F
BISMARCK       CLOUDY   -17 -21  82 CALM      30.52S
GRAND FORKS    CLOUDY    -4  -9  79 NW5       30.56S
FARGO          CLOUDY    -5 -13  68 W7        30.56F WCI -19
BUFFALO SD       N/A     -4  -8  83 SE7       30.20S WCI -18
RAPID CITY     CLOUDY     2  -3  80 S9        30.28S WCI -13
$$

REGIONAL REPORTS...WYOMING/IDAHO/WASHINGTON

CITY           SKY/WX    TMP DP  RH WIND       PRES   REMARKS
GILLETTE       CLOUDY    12   6  77 S10       30.05F WCI  -1
SHERIDAN       FLURRIES  11   4  73 E3        30.06F
BUFFALO WY     CLOUDY     8   1  73 S5        29.99F
CODY           CLOUDY     9   3  77 E3        29.94F
YELLOWSTONE LA   N/A     25  22  88 VRB3      29.92S
IDAHO FALLS    FRZ RAIN  27  24  89 N3        30.00S FOG
SALMON         CLOUDY    18  16  93 CALM      29.98F
BOISE          FOG       30  30 100 W5        30.00S VSB 1
SPOKANE        LGT SNOW  19  16  88 NE8       29.93F FOG     WCI   9
$$

REGIONAL REPORTS...ALBERTA

CITY           SKY/WX    TMP DP  RH WIND       PRES   REMARKS
EDMONTON       CLEAR    -15 -22  70 E5        30.21F
CALGARY        CRYSTALS  -9 -13  84 S8        30.01F WCI -26
LETHBRIDGE     FLURRIES  -2  -6  84 SE7       30.08F WCI -16
MEDICINE HAT   CLEAR     -8 -13  77 NE6       30.21F WCI -21
WATERTON GATE    N/A     -6 -11  77 NE1         N/A
CARDSTON         N/A     -8 -11  84 SW2         N/A
MILK RIVER       N/A      0  -4  85 S8          N/A  WCI -15
ONEFOUR          N/A      0  -4  85 E14         N/A  WCI -19
$$

REGIONAL REPORTS...SASKATCHEWAN

CITY           SKY/WX    TMP DP  RH WIND       PRES   REMARKS
SWIFT CURRENT  FLURRIES  -2  -6  84 SE12      30.22F WCI -20
REGINA         CLEAR    -17 -22  76 S7        30.41F WCI -33
SASKATOON      CRYSTALS  -9 -13  84 E3        30.43F
CYPRESS HILLS    N/A     -8 -13  77 S9          N/A  WCI -25
VAL MARIE        N/A     -2  -8  78 SE6         N/A  WCI -14
ROCKGLEN         N/A     -8 -11  84 S13         N/A  WCI -28
ASSINIBOIA       N/A    -11 -17  77 S7          N/A  WCI -26
$$




USA.gov is the U.S. government's official web portal to all federal, state and local government web resources and services.